User: anonymous   Login
Location: Simi Valley
(34.2690°N, 118.7810°W)
Time: 18:59:57
(UTC-07:00)
Language:

Lacrosse 5 rocket - Orbit

View from above orbital plane
View from above orbital plane
View from above satellite
View from above satellite

Ground track
Ground track

The orbit data is extracted from the following two-line orbital elements,

1 28647U 05016B   16149.88893562 0.00000900  00000-0  54319-4 0    07
2 28647  56.9950 135.1652 0120921 356.6321   3.3678 15.04282588    07
Epoch (UTC): 28 May 2016 21:20:04
Eccentricity: 0.0120921
inclination: 56.9950°
perigee height: 470 km
apogee height: 637 km
right ascension of ascending node: 135.1652°
argument of perigee: 356.6321°
revolutions per day: 15.04282588
mean anomaly at epoch: 3.3678°
orbit number at epoch: 0

The dashed part of the orbit path shows where the satellite is in the earth's shadow,  

DLR